EW6230 Weather Reports


time (UTC)temp
C
wind
direction
speed
KPH
gust
KPH
rain 1hr
cm
rain 24hr
cm
rain mn
cm
humidity
%
barometer
mb
20260509070029 7 151 0.0 0.0 0.00 0.00 0.00 1 1019.4
20260509064525 7 152 0.0 0.0 0.00 0.00 0.00 1 1019.3
20260509063025 7 152 0.0 0.0 0.00 0.00 0.00 1 1019.4
20260509061515 7 152 0.0 0.0 0.00 0.00 0.00 1 1019.3
20260509060027 7 152 0.0 0.0 0.00 0.00 0.00 1 1019.3
20260509054507 7 152 0.0 0.0 0.00 0.00 0.00 1 1019.3
20260509053002 8 152 0.0 0.0 0.00 0.00 0.00 1 1019.2
20260509051557 8 152 0.0 0.0 0.00 0.00 0.00 1 1019.2
20260509050057 8 152 0.0 0.0 0.00 0.00 0.00 1 1019.2
20260509044549 8 152 0.0 0.0 0.00 0.00 0.00 1 1019.2
20260509043048 8 152 0.0 0.0 0.00 0.00 0.00 2 1019.2
20260509041541 9 152 0.0 0.0 0.00 0.00 0.00 9 1019.1
20260509040048 9 152 0.0 0.0 0.00 0.00 0.00 21 1019.0
20260509034542 10 152 0.0 0.0 0.00 0.00 0.00 31 1018.8
20260509033026 10 152 0.0 0.0 0.00 0.00 0.00 39 1018.8
20260509031522 11 152 0.0 0.0 0.00 0.00 0.00 47 1018.7
20260509030018 11 151 0.0 0.0 0.00 0.00 0.00 52 1018.6
20260509024515 12 151 0.0 0.0 0.00 0.00 0.00 57 1018.6
20260509023010 12 153 0.0 0.0 0.00 0.00 0.00 58 1018.4
20260509021505 12 153 0.0 0.0 0.00 0.00 0.00 61 1018.3
20260509020001 12 153 0.0 1.6 0.00 0.00 0.00 63 1018.3
20260509014559 12 276 0.0 0.0 0.00 0.00 0.00 62 1018.2
20260509013055 13 276 0.0 0.0 0.00 0.00 0.00 63 1018.2
20260509011603 13 276 0.0 0.0 0.00 0.00 0.00 63 1018.3
20260509010052 13 83 0.0 1.6 0.00 0.00 0.00 63 1018.3
20260509004606 13 82 0.0 0.0 0.00 0.00 0.00 63 1018.3
20260509003045 13 82 0.0 1.6 0.00 0.00 0.00 63 1018.3
20260509001541 13 68 0.0 1.6 0.00 0.00 0.00 63 1018.3
20260509000037 13 57 0.0 1.6 0.00 0.00 0.00 63 1018.3
20260508234532 13 59 0.0 1.6 0.00 0.00 0.00 63 1018.4
20260508233028 13 93 0.0 0.0 0.00 0.00 0.00 63 1018.4
20260508231523 13 93 0.0 0.0 0.00 0.00 0.00 62 1018.2
20260508230023 13 94 0.0 0.0 0.00 0.00 0.00 63 1018.2
20260508224517 13 356 0.0 0.0 0.00 0.00 0.00 63 1018.1
20260508223030 13 357 0.0 0.0 0.00 0.00 0.00 57 1018.0
20260508221506 13 308 0.0 0.0 0.00 0.00 0.00 62 1018.0
20260508220002 13 308 0.0 0.0 0.00 0.00 0.00 61 1018.0
20260508214609 13 307 0.0 0.0 0.00 0.00 0.00 63 1018.1
20260508213054 13 300 0.0 0.0 0.00 0.00 0.00 62 1017.9
20260508211550 12 300 0.0 1.6 0.00 0.00 0.00 60 1017.9
20260508210045 12 300 0.0 1.6 0.00 0.00 0.00 60 1017.7
20260508204544 12 300 0.0 0.0 0.00 0.00 0.00 58 1017.6
20260508203036 12 316 0.0 0.0 0.00 0.00 0.00 60 1017.6
20260508201532 12 262 0.0 0.0 0.00 0.00 0.00 55 1017.4
20260508200027 12 329 0.0 1.6 0.00 0.00 0.00 59 1017.4
20260508194522 11 217 0.0 1.6 0.00 0.00 0.00 53 1017.2
20260508193019 11 81 0.0 1.6 0.00 0.00 0.00 45 1017.1
20260508191514 11 117 0.0 0.0 0.00 0.00 0.00 46 1017.0
20260508190008 10 91 0.0 1.6 0.00 0.00 0.00 41 1016.9
20260508184505 10 91 0.0 1.6 0.00 0.00 0.00 43 1016.7
20260508183100 10 96 0.0 0.0 0.00 0.00 0.00 36 1016.7
20260508181602 10 96 0.0 0.0 0.00 0.00 0.00 36 1016.6
20260508180051 10 96 0.0 3.2 0.00 0.00 0.00 34 1016.6
20260508174546 10 97 0.0 1.6 0.00 0.00 0.00 30 1016.3
20260508173041 10 233 0.0 0.0 0.00 0.00 0.00 21 1016.2
20260508171543 10 226 0.0 3.2 0.00 0.00 0.00 21 1016.0
20260508170034 10 141 0.0 1.6 0.00 0.00 0.00 16 1016.0
20260508164529 10 63 0.0 1.6 0.00 0.00 0.00 14 1015.7
20260508163024 10 63 0.0 0.0 0.00 0.00 0.00 6 1015.5
20260508161519 10 16 0.0 1.6 0.00 0.00 0.00 1 1015.2
20260508160032 10 142 0.0 1.6 0.00 0.00 0.00 1 1015.1
20260508154511 10 129 0.0 0.0 0.00 0.00 0.00 1 1015.0
20260508153006 10 130 0.0 0.0 0.00 0.00 0.00 1 1015.0
20260508151502 10 130 0.0 0.0 0.00 0.00 0.00 1 1015.0
20260508150056 9 130 0.0 1.6 0.00 0.00 0.00 1 1014.7
20260508144552 9 141 0.0 1.6 0.00 0.00 0.00 1 1014.7
20260508143059 -17 0.0 0.0 0.00 0.00 0.00 1014.5
20260508141552 -17 0.0 0.0 0.00 0.00 0.00 1014.4
20260508140042 -17 0.0 0.0 0.00 0.00 0.00 1014.3
20260508134535 -17 0.0 0.0 0.00 0.00 0.00 1014.2
20260508133030 -17 0.0 0.0 0.00 0.00 0.00 1014.0
20260508131527 -17 0.0 0.0 0.00 0.00 0.00 1013.7
20260508130025 8 165 0.0 0.0 0.00 0.00 0.00 1 1013.6
20260508124521 7 164 0.0 0.0 0.00 0.00 0.00 1 1013.7
20260508123017 7 191 0.0 0.0 0.00 0.00 0.00 1 1013.7
20260508121535 7 190 0.0 0.0 0.00 0.00 0.00 1 1013.6
20260508120008 7 191 0.0 0.0 0.00 0.00 0.00 1 1013.6
20260508114504 7 190 0.0 0.0 0.00 0.00 0.00 1 1013.5
20260508113107 7 191 0.0 0.0 0.00 0.00 0.00 1 1013.5
20260508111554 7 191 0.0 0.0 0.00 0.00 0.00 1 1013.5
20260508110054 7 191 0.0 0.0 0.00 0.00 0.00 1 1013.3
20260508104545 7 191 0.0 0.0 0.00 0.00 0.00 1 1013.1
20260508103040 7 191 0.0 0.0 0.00 0.00 0.00 1 1013.0
20260508101538 7 191 0.0 0.0 0.00 0.00 0.00 1 1013.1
20260508100033 8 191 0.0 0.0 0.00 0.00 0.00 1 1013.0
20260508094529 8 191 0.0 0.0 0.00 0.00 0.00 1 1013.0
20260508093024 8 191 0.0 0.0 0.00 0.00 0.00 1 1012.9
20260508091520 8 191 0.0 0.0 0.00 0.00 0.00 1 1012.7
20260508090017 8 169 0.0 0.0 0.00 0.00 0.00 1 1012.6
20260508084511 8 169 0.0 0.0 0.00 0.00 0.00 1 1012.8
20260508083020 8 169 0.0 0.0 0.00 0.00 0.00 1 1012.7
20260508081606 8 169 0.0 0.0 0.00 0.00 0.00 1 1012.6
20260508080101 8 169 0.0 0.0 0.00 0.00 0.00 1 1012.6
20260508074554 8 169 0.0 0.0 0.00 0.00 0.00 1 1012.6
20260508073056 8 169 0.0 0.0 0.00 0.00 0.00 1 1012.8
20260508071549 8 169 0.0 0.0 0.00 0.00 0.00 1 1012.7